Weather History for KVPZ - April, 2013

Change the Weather History Date:

Sunday, April 7, 2013

  Actual Average Record
Temperature  
Mean Temperature 50 °F 46 °F  
Max Temperature 61 °F 56 °F 77 °F (2001)
Min Temperature 38 °F 36 °F 21 °F (2007)
Degree Days  
Heating Degree Days 15 19  
Month to date heating degree days 173 141  
Since 1 July heating degree days 5542 5718  
Cooling Degree Days 0 0  
Month to date cooling degree days 0 0  
Year to date cooling degree days 0 0  
Moisture  
Dew Point 40 °F    
Average Humidity 68    
Maximum Humidity 87    
Minimum Humidity 42    
Precipitation  
Precipitation 0.00 in 0.12 in 1.34 in (2010)
Month to date precipitation 0.01 0.69  
Year to date precipitation 4.10 6.34  
Sea Level Pressure  
Sea Level Pressure 29.86 in    
Wind  
Wind Speed 11 mph (WNW)    
Max Wind Speed 26 mph    
Max Gust Speed 33 mph    
Visibility 9 miles    
Events      
T = Trace of Precipitation, MM = Missing Value Source: NWS Daily Summary

Daily Weather History Graph

Daily Weather History Graph

Search for Another Location

Airport or City:

Trip Planner

Search our weather history database for the weather conditions in past years. The results will help you decide how hot, cold, wet, or windy it might be!

Date:

Astronomy

Apr. 07, 2013 Rise Set
Actual Time 6:20 AM CDT 7:20 PM CDT
Civil Twilight 5:52 AM CDT 7:48 PM CDT
Nautical Twilight 5:18 AM CDT 8:22 PM CDT
Astronomical Twilight 4:43 AM CDT 8:57 PM CDT
Moon 4:39 AM CDT (4/7) 4:50 PM CDT (4/7)
Length of Visible Light 13h 55m
Length of Day
12h 59m
Waning Crescent, 8% of the Moon is Illuminated
Apr 7
Waning Crescent
Apr 10
New
Apr 18
First Quarter
Apr 25
Full
May 2
Last Quarter

Hourly Weather History & Observations

Time (CDT) Temp. Windchill Dew Point Humidity Pressure Visibility Wind Dir Wind Speed Gust Speed Precip Events Conditions
12:53 AM 55.0 °F - 46.9 °F 74% 29.69 in 10.0 mi SW 19.6 mph 26.5 mph 0.01 in   Overcast
1:53 AM 55.0 °F - 46.0 °F 72% 29.67 in 10.0 mi SSW 17.3 mph 23.0 mph N/A   Scattered Clouds
2:53 AM 54.0 °F - 46.0 °F 75% 29.68 in 10.0 mi SW 17.3 mph 25.3 mph N/A   Clear
3:30 AM 53.6 °F - 46.4 °F 77% 29.71 in 10.0 mi West 20.7 mph 25.3 mph N/A   Mostly Cloudy
3:53 AM 50.0 °F - 45.0 °F 83% 29.72 in 8.0 mi West 24.2 mph 31.1 mph N/A   Overcast
4:42 AM 50.0 °F - 44.6 °F 82% 29.75 in 7.0 mi WSW 20.7 mph 26.5 mph N/A   Overcast
4:53 AM 50.0 °F - 44.1 °F 80% 29.75 in 6.0 mi West 17.3 mph - N/A   Haze
5:21 AM 48.2 °F - 44.6 °F 87% 29.78 in 7.0 mi WSW 15.0 mph - N/A   Overcast
5:53 AM 48.0 °F - 42.1 °F 80% 29.79 in 8.0 mi West 19.6 mph - N/A   Overcast
6:07 AM 48.2 °F - 42.8 °F 82% 29.80 in 8.0 mi WSW 17.3 mph - N/A   Overcast
6:53 AM 48.0 °F - 42.1 °F 80% 29.83 in 6.0 mi WSW 11.5 mph - N/A   Haze
7:53 AM 48.0 °F - 41.0 °F 77% 29.87 in 8.0 mi West 16.1 mph - N/A   Overcast
8:53 AM 48.9 °F - 39.9 °F 71% 29.89 in 9.0 mi West 17.3 mph - N/A   Mostly Cloudy
9:01 AM 50.0 °F - 39.2 °F 66% 29.89 in 9.0 mi West 13.8 mph - N/A   Scattered Clouds
9:53 AM 52.0 °F - 41.0 °F 66% 29.90 in 8.0 mi West 12.7 mph - N/A   Partly Cloudy
10:53 AM 54.0 °F - 37.9 °F 55% 29.93 in 9.0 mi West 10.4 mph - N/A   Clear
11:53 AM 55.9 °F - 37.0 °F 49% 29.94 in 10.0 mi NNW 10.4 mph 17.3 mph N/A   Clear
12:53 PM 61.0 °F - 37.9 °F 42% 29.93 in 10.0 mi NNW 9.2 mph 24.2 mph N/A   Clear
1:53 PM 61.0 °F - 37.9 °F 42% 29.93 in 10.0 mi North 5.8 mph - N/A   Clear
2:53 PM 59.0 °F - 37.9 °F 46% 29.94 in 10.0 mi North 8.1 mph - N/A   Clear
3:53 PM 55.9 °F - 37.0 °F 49% 29.95 in 10.0 mi NNE 6.9 mph - N/A   Clear
4:53 PM 54.0 °F - 37.0 °F 53% 29.96 in 10.0 mi North 6.9 mph - N/A   Clear
5:53 PM 53.1 °F - 36.0 °F 52% 29.97 in 10.0 mi North 4.6 mph - N/A   Clear
6:53 PM 50.0 °F - 36.0 °F 59% 29.96 in 10.0 mi North 3.5 mph - N/A   Clear
7:53 PM 44.1 °F 40.8 °F 35.1 °F 71% 29.96 in 10.0 mi NNE 5.8 mph - N/A   Clear
8:53 PM 39.9 °F 35.8 °F 33.1 °F 77% 29.97 in 9.0 mi NE 5.8 mph - N/A   Clear
9:53 PM 39.9 °F 35.1 °F 33.1 °F 77% 29.98 in 9.0 mi ENE 6.9 mph - N/A   Clear
10:53 PM 39.9 °F 35.1 °F 33.1 °F 77% 29.96 in 9.0 mi ENE 6.9 mph - N/A   Clear
11:53 PM 39.0 °F 33.4 °F 34.0 °F 82% 29.95 in 8.0 mi East 8.1 mph - N/A   Clear